Time,TemperatureF,DewpointF,PressureIn,WindDirection,WindDirectionDegrees,WindSpeedMPH,WindSpeedGustMPH,Humidity,HourlyPrecipIn,Conditions,Clouds,dailyrainin,SoftwareType,DateUTC
2013-05-03 00:32:00,23.0,-99.9,-100.00,East,93,11.0,16.0,-999,-99.99,,,-99.99,,2013-05-03 06:32:00,
2013-05-03 00:42:00,23.0,-99.9,-100.00,East,93,11.0,16.0,-999,-99.99,,,-99.99,,2013-05-03 06:42:00,
2013-05-03 00:52:00,23.0,-99.9,-100.00,East,93,11.0,16.0,-999,-99.99,,,-99.99,,2013-05-03 06:52:00,
2013-05-03 01:32:00,21.0,-99.9,-100.00,North,2,12.0,12.0,-999,-99.99,,,-99.99,,2013-05-03 07:32:00,
2013-05-03 01:42:00,21.0,-99.9,-100.00,North,2,12.0,12.0,-999,-99.99,,,-99.99,,2013-05-03 07:42:00,
2013-05-03 01:52:00,21.0,-99.9,-100.00,North,2,12.0,12.0,-999,-99.99,,,-99.99,,2013-05-03 07:52:00,
2013-05-03 02:32:00,23.0,-99.9,-100.00,ENE,78,17.0,20.0,-999,-99.99,,,-99.99,,2013-05-03 08:32:00,
2013-05-03 02:42:00,23.0,-99.9,-100.00,ENE,78,17.0,20.0,-999,-99.99,,,-99.99,,2013-05-03 08:42:00,
2013-05-03 02:53:00,23.0,-99.9,-100.00,ENE,78,17.0,20.0,-999,-99.99,,,-99.99,,2013-05-03 08:53:00,
2013-05-03 03:33:00,25.0,-99.9,-100.00,ENE,74,24.0,27.0,-999,-99.99,,,-99.99,,2013-05-03 09:33:00,
2013-05-03 03:43:00,25.0,-99.9,-100.00,ENE,74,24.0,27.0,-999,-99.99,,,-99.99,,2013-05-03 09:43:00,
2013-05-03 03:53:00,25.0,-99.9,-100.00,ENE,74,24.0,27.0,-999,-99.99,,,-99.99,,2013-05-03 09:53:00,
2013-05-03 04:32:00,23.0,-99.9,-100.00,East,79,20.0,23.0,-999,-99.99,,,-99.99,,2013-05-03 10:32:00,
2013-05-03 04:42:00,23.0,-99.9,-100.00,East,79,20.0,23.0,-999,-99.99,,,-99.99,,2013-05-03 10:42:00,
2013-05-03 04:52:00,23.0,-99.9,-100.00,East,79,20.0,23.0,-999,-99.99,,,-99.99,,2013-05-03 10:52:00,
2013-05-03 05:32:00,23.0,-99.9,-100.00,East,83,16.0,17.0,-999,-99.99,,,-99.99,,2013-05-03 11:32:00,
2013-05-03 05:42:00,23.0,-99.9,-100.00,East,83,16.0,17.0,-999,-99.99,,,-99.99,,2013-05-03 11:42:00,
2013-05-03 05:52:00,23.0,-99.9,-100.00,East,83,16.0,17.0,-999,-99.99,,,-99.99,,2013-05-03 11:52:00,
2013-05-03 07:32:00,23.0,-99.9,-100.00,East,89,14.0,15.0,-999,-99.99,,,-99.99,,2013-05-03 13:32:00,
2013-05-03 07:42:00,23.0,-99.9,-100.00,East,89,14.0,15.0,-999,-99.99,,,-99.99,,2013-05-03 13:42:00,
2013-05-03 07:53:00,23.0,-99.9,-100.00,East,89,14.0,15.0,-999,-99.99,,,-99.99,,2013-05-03 13:53:00,
2013-05-03 08:32:00,27.0,-99.9,-100.00,East,82,13.0,17.0,-999,-99.99,,,-99.99,,2013-05-03 14:32:00,
2013-05-03 08:42:00,27.0,-99.9,-100.00,East,82,13.0,17.0,-999,-99.99,,,-99.99,,2013-05-03 14:42:00,
2013-05-03 08:52:00,27.0,-99.9,-100.00,East,82,13.0,17.0,-999,-99.99,,,-99.99,,2013-05-03 14:52:00,
2013-05-03 09:33:00,30.0,-99.9,-100.00,East,86,12.0,19.0,-999,-99.99,,,-99.99,,2013-05-03 15:33:00,
2013-05-03 09:43:00,30.0,-99.9,-100.00,East,86,12.0,19.0,-999,-99.99,,,-99.99,,2013-05-03 15:43:00,
2013-05-03 09:53:00,30.0,-99.9,-100.00,East,86,12.0,19.0,-999,-99.99,,,-99.99,,2013-05-03 15:53:00,
2013-05-03 10:33:00,34.0,-99.9,-100.00,ENE,77,14.0,16.0,-999,-99.99,,,-99.99,,2013-05-03 16:33:00,
2013-05-03 10:42:00,34.0,-99.9,-100.00,ENE,77,14.0,16.0,-999,-99.99,,,-99.99,,2013-05-03 16:42:00,
2013-05-03 10:50:00,36.0,-99.9,-100.00,ENE,73,15.0,18.0,-999,-99.99,,,-99.99,,2013-05-03 16:50:00,
2013-05-03 10:52:00,34.0,-99.9,-100.00,ENE,77,14.0,16.0,-999,-99.99,,,-99.99,,2013-05-03 16:52:00,
2013-05-03 11:32:00,36.0,-99.9,-100.00,ENE,73,15.0,18.0,-999,-99.99,,,-99.99,,2013-05-03 17:32:00,
2013-05-03 11:42:00,36.0,-99.9,-100.00,ENE,73,15.0,18.0,-999,-99.99,,,-99.99,,2013-05-03 17:42:00,
2013-05-03 11:50:00,41.0,-99.9,-100.00,ENE,73,6.0,8.0,-999,-99.99,,,-99.99,,2013-05-03 17:50:00,
2013-05-03 12:32:00,41.0,-99.9,-100.00,ENE,73,6.0,8.0,-999,-99.99,,,-99.99,,2013-05-03 18:32:00,
2013-05-03 12:42:00,41.0,-99.9,-100.00,ENE,73,6.0,8.0,-999,-99.99,,,-99.99,,2013-05-03 18:42:00,
2013-05-03 12:50:00,41.0,-99.9,-100.00,East,79,7.0,11.0,-999,-99.99,,,-99.99,,2013-05-03 18:50:00,
2013-05-03 13:32:00,41.0,-99.9,-100.00,East,79,7.0,11.0,-999,-99.99,,,-99.99,,2013-05-03 19:32:00,
2013-05-03 13:42:00,41.0,-99.9,-100.00,East,79,7.0,11.0,-999,-99.99,,,-99.99,,2013-05-03 19:42:00,
2013-05-03 13:50:00,41.0,-99.9,-100.00,ENE,64,8.0,10.0,-999,-99.99,,,-99.99,,2013-05-03 19:50:00,
2013-05-03 14:32:00,41.0,-99.9,-100.00,ENE,64,8.0,10.0,-999,-99.99,,,-99.99,,2013-05-03 20:32:00,
2013-05-03 14:42:00,41.0,-99.9,-100.00,ENE,64,8.0,10.0,-999,-99.99,,,-99.99,,2013-05-03 20:42:00,
2013-05-03 14:50:00,43.0,-99.9,-100.00,ENE,58,5.0,7.0,-999,-99.99,,,-99.99,,2013-05-03 20:50:00,
2013-05-03 15:33:00,43.0,-99.9,-100.00,ENE,58,5.0,7.0,-999,-99.99,,,-99.99,,2013-05-03 21:33:00,
2013-05-03 15:43:00,43.0,-99.9,-100.00,ENE,58,5.0,7.0,-999,-99.99,,,-99.99,,2013-05-03 21:43:00,
2013-05-03 18:50:00,37.0,-99.9,-100.00,NNE,20,7.0,8.0,-999,-99.99,,,-99.99,,2013-05-04 00:50:00,
2013-05-03 19:32:00,37.0,-99.9,-100.00,NNE,20,7.0,8.0,-999,-99.99,,,-99.99,,2013-05-04 01:32:00,
2013-05-03 19:42:00,37.0,-99.9,-100.00,NNE,20,7.0,8.0,-999,-99.99,,,-99.99,,2013-05-04 01:42:00,
2013-05-03 19:50:00,36.0,-99.9,-100.00,East,97,6.0,9.0,-999,-99.99,,,-99.99,,2013-05-04 01:50:00,
2013-05-03 20:32:00,36.0,-99.9,-100.00,East,97,6.0,9.0,-999,-99.99,,,-99.99,,2013-05-04 02:32:00,
2013-05-03 20:42:00,36.0,-99.9,-100.00,East,97,6.0,9.0,-999,-99.99,,,-99.99,,2013-05-04 02:42:00,
2013-05-03 20:50:00,36.0,-99.9,-100.00,East,91,10.0,11.0,-999,-99.99,,,-99.99,,2013-05-04 02:50:00,
2013-05-03 21:33:00,36.0,-99.9,-100.00,East,91,10.0,11.0,-999,-99.99,,,-99.99,,2013-05-04 03:33:00,
2013-05-03 21:43:00,36.0,-99.9,-100.00,East,91,10.0,11.0,-999,-99.99,,,-99.99,,2013-05-04 03:43:00,
2013-05-03 21:50:00,34.0,-99.9,-100.00,ENE,77,9.0,12.0,-999,-99.99,,,-99.99,,2013-05-04 03:50:00,
2013-05-03 22:33:00,34.0,-99.9,-100.00,ENE,77,9.0,12.0,-999,-99.99,,,-99.99,,2013-05-04 04:33:00,
2013-05-03 22:43:00,34.0,-99.9,-100.00,ENE,77,9.0,12.0,-999,-99.99,,,-99.99,,2013-05-04 04:43:00,
2013-05-03 22:50:00,32.0,-99.9,-100.00,East,88,7.0,9.0,-999,-99.99,,,-99.99,,2013-05-04 04:50:00,
2013-05-03 23:32:00,32.0,-99.9,-100.00,East,88,7.0,9.0,-999,-99.99,,,-99.99,,2013-05-04 05:32:00,
2013-05-03 23:43:00,32.0,-99.9,-100.00,East,88,7.0,9.0,-999,-99.99,,,-99.99,,2013-05-04 05:43:00,
2013-05-03 23:50:00,34.0,-99.9,-100.00,North,10,9.0,12.0,-999,-99.99,,,-99.99,,2013-05-04 05:50:00,